Regional Weather Roundup
Issued by NWS

Home | Current Version | Previous Version | Text Only | Print | Product List | Glossary On
Versions: 1 2 3 4 5 6 7 8 9 10 11 12 13 14 15 16 17 18 19 20 21 22 23 24 25 26 27 28 29 30 31 32 33 34 35 36 37 38 39 40 41 42 43 44 45 46 47 48 49 50
000
ASUS43 KLOT 250506
RWRIL

ILLINOIS REGIONAL WEATHER ROUNDUP
NATIONAL WEATHER SERVICE CHICAGO/ROMEOVILLE IL
1200 AM CDT FRI JUL 25 2014

NOTE: "FAIR" INDICATES FEW OR NO CLOUDS BELOW 12,000 FEET WITH NO
SIGNIFICANT WEATHER AND/OR OBSTRUCTIONS TO VISIBILITY.

* THESE STATIONS ARE NOT UNDER NWS QUALITY CONTROL. THEY ALSO MAY NOT
  REPORT WEATHER SUCH AS PRECIPITATION OR FOG.

ILZ001-002-007-009-015-016-024-250600-
NORTHWEST ILLINOIS

CITY           SKY/WX    TMP DP  RH WIND       PRES   REMARKS
MOLINE         CLEAR     62  56  80 SE6       30.02R
STERLING*      PTCLDY    63  54  72 S5        30.04R
SAVANNA*       CLEAR     64  55  72 CALM      30.03R
$$

ILZ003-004-008-010-011-017-018-250600-
NORTH CENTRAL ILLINOIS

CITY           SKY/WX    TMP DP  RH WIND       PRES   REMARKS
ROCKFORD       CLEAR     62  49  62 SE13      30.05F
FREEPORT*      CLEAR     58  54  87 S6        30.04S
ROCHELLE*      PTCLDY    58  51  80 SE6       30.04S
DE KALB*       PTCLDY    58  48  68 SE10      30.05F
PERU*          MOCLDY    64  53  66 SE10      30.04R
$$

ILZ005-006-012>014-019>023-250600-
NORTHEAST ILLINOIS

CITY           SKY/WX    TMP DP  RH WIND       PRES   REMARKS
CHICAGO-OHARE  PTCLDY    60  45  57 S6        30.05S
CHICAGO-MIDWAY PTCLDY    65  51  60 S6        30.06S
AURORA         PTCLDY    57  49  74 CALM      30.05F
JOLIET*        CLEAR     58  49  70 CALM      30.07S
WAUKEGAN       CLEAR     55  51  86 CALM      30.05S
DUPAGE AIRPORT CLEAR     57  49  74 SE3       30.05S
KANKAKEE*      CLEAR     56  51  82 CALM      30.07S
WHEELING       CLEAR     61  47  59 CALM      30.07R
MORRIS*        CLEAR     59  53  80 SE7       30.05F
ROMEOVILLE*    CLEAR     56  50  79 SE5       30.06S
$$

LMZ740>746-250600-
SOUTHERN LAKE MICHIGAN

STATION/POSITION SKY/WX   TEMP    WIND        PRES    VSBY  WAVE
                          AIR SEA DIR/SP/G                  HT/PER
                          (F)     (DEG/KT/KT) (MB)    (MI)  (FT/S)
SOUTHERN BUOY              62 61  170/  6/  6 1017.8R
WAUKEGAN HARBOR            63     210/  5/  8   N/A
HARRISON CRIB              65     160/ 11/ 12   N/A
CALUMET HARBOR             63     160/  3/  5 1016.7S
MICHIGAN CITY              59     130/  5/  7   N/A
MICHIGAN CITY 6N           63 69  150/  6/  8   N/A           1/ 2
ST. JOSEPH                 57 52  140/  2/  4   N/A           1/ 3
$$

ILZ025>027-034>036-040-047-049-050-058-095>099-250600-
WEST-CENTRAL ILLINOIS

CITY           SKY/WX    TMP DP  RH WIND       PRES   REMARKS
QUINCY         MOCLDY    64  56  75 S5        30.01S
GALESBURG*     PTCLDY    64  57  78 SE5       30.03F
MACOMB*        PTCLDY    60  58  94 SE6       30.05S
JACKSONVILLE*  MOCLDY    64  57  77 SE6       30.04S
PITTSFIELD*    PTCLDY    62  56  82 S5        30.03F
$$

ILZ028>032-037-038-041>044-048-051>054-059>061-250600-
CENTRAL ILLINOIS

CITY           SKY/WX    TMP DP  RH WIND       PRES   REMARKS
PONTIAC        PTCLDY    61  57  88 SE3       30.06F
DECATUR        PTCLDY    61  56  83 SE3       30.04F
PEORIA         MOCLDY    68  54  60 SE6       30.04S
LACON*         MOCLDY    62  54  75 SE7       30.03S
LINCOLN*       PTCLDY    61  57  88 CALM      30.03R
SPRINGFIELD    PTCLDY    63  56  78 SE7       30.03S
TAYLORVILLE    CLEAR     55  55 100 CALM      30.04S
$$

ILZ033-039-045-046-055>057-062-063-250600-
EAST-CENTRAL ILLINOIS

CITY           SKY/WX    TMP DP  RH WIND       PRES   REMARKS
CHAMPAIGN      PTCLDY    61  55  81 NE3       30.06S
DANVILLE*      MOCLDY    56  54  95 N7        30.03S
RANTOUL*       PTCLDY    65  53  67 NE7       30.08R
MATTOON        MOCLDY    60  57  89 CALM      30.04F
PARIS*         MOCLDY    56  56  97 CALM      30.06S
$$

ILZ079-100>102-250600-
SOUTHWEST ILLINOIS

CITY           SKY/WX    TMP DP  RH WIND       PRES   REMARKS
ALTON          CLEAR     59  58  97 CALM      30.04S
BELLEVILLE     CLEAR     61  59  95 CALM      30.04S
CAHOKIA*       CLEAR     63  57  81 CALM      30.04S
SPARTA*        CLEAR     59  55  88 SE3       30.04F
$$

ILZ064>066-069>071-074>076-080>082-084>086-088>090-092>094-250600-
SOUTH-CENTRAL ILLINOIS

CITY           SKY/WX    TMP DP  RH WIND       PRES   REMARKS
CARBONDALE     CLEAR     60  58  92 SE3       30.04F
CAIRO*         PTCLDY    63  59  88 CALM      30.05F
EFFINGHAM*     CLEAR     59  55  86 CALM      30.04F
MARION         CLEAR     63  59  88 CALM      30.05F
MT. VERNON     CLEAR     59  55  88 CALM      30.05F
CENTRALIA*     CLEAR     56  54  93 CALM      30.04F
SALEM*         CLEAR     61  58  90 CALM      30.05F
METROPOLIS*    PTCLDY    60  58  94 CALM      30.04S
$$

ILZ067-068-072-073-078-083-087-091-250600-
SOUTHEAST ILLINOIS

CITY           SKY/WX    TMP DP  RH WIND       PRES   REMARKS
LAWRENCEVILLE  PTCLDY    64  60  87 CALM      30.05S
FLORA*         PTCLDY    57  55  94 CALM      30.05F
FAIRFIELD*     CLEAR     59  57  94 CALM      30.04F
HARRISBURG*    CLEAR     60  60 100 CALM      30.07R
ROBINSON*      MOCLDY    59  58  97 CALM      30.06S
CARMI*         CLEAR     63  63 100 CALM      30.04F
$$

ABBREVIATIONS USED IN REMARKS
   TC - TEMPERATURE IN CELSIUS
  WCI - WIND CHILL INDEX
   HX - HEAT INDEX
  VSB - VISIBILITY
$$




USA.gov is the U.S. government's official web portal to all federal, state and local government web resources and services.